Simultaneous Nadir Overpasses (SNOs) Predictions

Prediction of SNOs between AQUA and GOES-15 Satellite Orbit:

Table of predicted SNOs for the next 14.0 days since TLE Epoch: 1/20/2017
Index Date Time (AQUA) AQUA Lat,Lon GOES-15 Lat,Lon Distance(km) Time Diff (sec)
1 01/21/2017 10:37:48 0.01,-135.60 -0.07,-135.14 52.26 80
2 01/23/2017 10:25:38 -0.62,-132.65 -0.06,-135.19 289.70 80
3 01/23/2017 22:47:02 -0.51,-137.83 0.07,-135.18 301.54 80
4 01/25/2017 22:34:52 0.13,-134.88 0.06,-135.23 39.53 80
5 01/27/2017 22:22:42 0.77,-131.93 0.06,-135.27 379.95 80
6 01/28/2017 10:43:58 0.32,-137.09 -0.06,-135.30 203.30 80
7 01/30/2017 10:31:48 -0.33,-134.13 -0.06,-135.33 136.46 80
8 01/30/2017 22:53:12 -0.80,-139.32 0.06,-135.32 454.90 80
9 02/01/2017 10:19:37 -0.92,-131.17 -0.06,-135.36 475.64 80
10 02/01/2017 22:41:02 -0.14,-136.37 0.06,-135.35 115.94 80




NCC Satellite Simultaneous Nadir Overpasses (SNOs) Prediction Service
